MORDOVIA-IOT (RS50S)

Last updated on Wed Feb 05 2025 00:03:01 GMT+0000 (Coordinated Universal Time)

1 61765U 24199AG 25035.61299353 .00038497 00000+0 12803-2 0 9999 2 61765 97.3763 265.5070 0010886 264.5157 95.4842 15.31009101 57847
UTC large
Height (km)
Speed (km/s)
/
Latitude / Longitude
Inclination (degrees)
Orbital Period (minutes)
Azimuth
Elevation
Range (km)
Doppler Factor

Next 0 passes for location: London (51.5072 / 0.1276)

Sorry there are no passes over London.